Tracking 19847 objects as of 17-Sep-2019
HD Live streaming from Space Station
objects crossing your sky now

DMSP 5D-2 F6 DEB

Track DMSP 5D-2 F6 DEB now!
10-day predictions


NORAD ID: 40918
Int'l Code: 1982-118L
Perigee: 575.6 km
Apogee: 766.2 km
Inclination: 98.4 °
Period: 98.0 minutes
Semi major axis: 7041 km
RCS: Unknown
Launch date: December 21, 1982
Source: United States (US)
Launch site: AIR FORCE WESTERN TEST RANGE (AFWTR)

Note: This is SATELLITE DEBRIS
aabbcc
Your satellite tracking list
Your tracking list is empty




NASA's NSSDC Master Catalog

Two Line Element Set (TLE):
1 40918U 82118L   19259.74699723 +.00000157 +00000-0 +32567-4 0  9995
2 40918 098.4433 146.0525 0135308 350.8946 008.9807 14.69160531194612
Source of the keplerian elements: AFSPC